[[{"header":{"parameterUnit":"m.s-1","parameterCategory":1,"la1":30.2991,"la2":30.254,"lo1":-89.0895,"lo2":-89.0444,"dy":0.0017,"dx":0.0017,"nx":28,"ny":28,"refTime":"2024-05-01T03:00:00:Z","depth":0,"parameterNumber":2,"parameterNumberName":"U-component_of_WINDS"},"data":[0,0,0,0,0,0,0,0,0,0,0,0,0,0,0,0,0,0,0,0,0,0,0,0,0,0,0,0,0,0,0,0,0,0,0,0,0,0,0,0,0,0,0,0,0,0,0,0,0,0,0,0,0,0,0,0,0,0,-0.0932,-0.0933,0,-0.0999,-0.1,-0.1,-0.1058,-0.1058,-0.1059,-0.106,-0.1125,-0.1126,-0.1127,0,0,0,0,0,0,0,0,0,0,0,0,0,-0.0853,-0.0854,-0.0932,-0.0933,-0.0934,-0.0999,-0.1,-0.1001,-0.1058,-0.1058,-0.1059,-0.106,-0.1125,-0.1126,-0.1127,0,0,0,0,0,0,0,0,0,0,0,0,0,-0.09,-0.0855,-0.0932,-0.097,-0.0974,-0.0999,-0.1,-0.1001,-0.1057,-0.1058,-0.1059,-0.106,-0.1124,-0.1126,-0.1127,-0.1118,0,0,-0.1133,-0.1133,0,0,0,0,0,0,0,0,-0.0898,-0.0903,-0.0964,-0.0968,-0.0972,-0.1021,-0.0996,-0.104,-0.1057,-0.1026,-0.106,-0.1061,-0.1089,-0.1094,-0.1104,-0.1121,-0.1124,-0.1133,-0.1134,-0.1135,-0.1135,0,0,0,0,0,0,0,-0.0894,-0.0901,-0.0958,-0.0965,-0.097,-0.0984,-0.0991,-0.1004,-0.1051,-0.1029,-0.1033,-0.104,-0.1092,-0.1102,-0.1106,-0.1125,-0.1133,-0.1134,-0.1135,-0.1136,-0.1141,-0.114,0,0,0,0,0,0,-0.0885,-0.0898,-0.0956,-0.096,-0.0937,-0.0984,-0.0993,-0.1004,-0.1051,-0.1059,-0.1039,-0.1043,-0.1099,-0.1104,-0.1109,-0.1103,-0.1134,-0.1136,-0.1137,-0.1142,-0.1141,-0.114,0,0,0,0,0,0,-0.0883,-0.089,-0.0954,-0.093,-0.0939,-0.0985,-0.0997,-0.1005,-0.1016,-0.1059,-0.1068,-0.1042,-0.11,-0.1106,-0.1116,-0.1106,-0.1137,-0.1138,-0.1143,-0.1141,-0.114,-0.109,0,0,0,0,0,0,-0.0881,-0.0889,-0.0886,-0.093,-0.094,-0.096,-0.0996,-0.1006,-0.1019,-0.1024,-0.1064,-0.1071,-0.1101,-0.1113,-0.1118,-0.1109,-0.114,-0.1144,-0.1142,-0.1141,-0.1093,-0.1087,-0.1082,0,0,0,0,0,-0.0878,-0.0868,-0.0886,-0.0892,-0.0938,-0.0959,-0.0966,-0.1001,-0.1018,-0.1015,-0.1044,-0.107,-0.1106,-0.1114,-0.112,-0.1111,-0.1145,-0.1143,-0.1141,-0.1095,-0.1088,-0.1082,0,0,0,0,0,0,-0.082,-0.0874,-0.0894,-0.0899,-0.0924,-0.0969,-0.0967,-0.0992,-0.1013,-0.1017,-0.1059,-0.1068,-0.1073,-0.1093,-0.1101,-0.1106,-0.1129,-0.1128,-0.1093,-0.1086,-0.1081,-0.1077,-0.1141,0,0,0,0,0,-0.0808,-0.0822,-0.0868,-0.0867,-0.088,-0.0921,-0.0932,-0.0957,-0.0985,-0.0996,-0.1025,-0.105,-0.1068,-0.1078,-0.1096,-0.1096,-0.1106,-0.1093,-0.1088,-0.1083,-0.1082,-0.1085,-0.108,-0.1133,-0.1133,-0.1133,0,0,-0.0783,-0.0815,-0.082,-0.0857,-0.088,-0.0893,-0.093,-0.0941,-0.0952,-0.0997,-0.1009,-0.1031,-0.1063,-0.1068,-0.1072,-0.1085,-0.107,-0.1081,-0.1077,-0.1078,-0.1083,-0.1078,-0.1073,-0.1132,-0.1132,-0.1132,0,0,-0.0745,-0.0769,-0.0772,-0.0795,-0.083,-0.0858,-0.0859,-0.0901,-0.0918,-0.0931,-0.0966,-0.0979,-0.1007,-0.1029,-0.1043,-0.1016,-0.1041,-0.102,-0.0993,-0.0996,-0.0992,-0.0988,-0.098,-0.0976,-0.1019,-0.1019,-0.1019,0,-0.0709,-0.0731,-0.077,-0.0781,-0.0797,-0.084,-0.0844,-0.0864,-0.0902,-0.0912,-0.0926,-0.0965,-0.0989,-0.1001,-0.0995,-0.1005,-0.1007,-0.1016,-0.0989,-0.0986,-0.0983,-0.0976,-0.0972,-0.1016,-0.1016,-0.1017,-0.1017,0,-0.0686,-0.0701,-0.0699,-0.0737,-0.0753,-0.0759,-0.08,-0.0811,-0.0836,-0.0862,-0.0876,-0.0907,-0.0933,-0.0938,-0.0961,-0.0954,-0.0961,-0.0981,-0.1006,-0.0975,-0.0969,-0.0966,-0.1012,-0.1013,-0.1014,-0.1015,0,0,-0.0612,-0.0674,-0.0673,-0.0691,-0.0734,-0.0746,-0.0756,-0.0783,-0.0792,-0.0817,-0.0827,-0.0852,-0.0872,-0.0888,-0.0915,-0.0917,-0.0895,-0.0938,-0.0939,-0.093,-0.0891,-0.0876,-0.0872,-0.0912,-0.0912,-0.0912,-0.0889,0,-0.0581,-0.0602,-0.0639,-0.0648,-0.0663,-0.0705,-0.0714,-0.0741,-0.0767,-0.0783,-0.0811,-0.0828,-0.0853,-0.0863,-0.0868,-0.0897,-0.0888,-0.0899,-0.0922,-0.0922,-0.0914,-0.0868,-0.0852,-0.0829,-0.0887,-0.0886,-0.0886,0,-0.0548,-0.0573,-0.0584,-0.0628,-0.0635,-0.0642,-0.0672,-0.0686,-0.0719,-0.0737,-0.0757,-0.0786,-0.0799,-0.0822,-0.084,-0.0847,-0.0859,-0.0875,-0.0875,-0.0879,-0.0903,-0.0872,-0.0822,-0.0819,-0.0882,-0.0882,-0.0883,0,-0.0495,-0.0531,-0.0543,-0.0557,-0.0608,-0.0613,-0.0634,-0.0667,-0.0682,-0.0707,-0.0717,-0.0743,-0.0757,-0.0776,-0.0812,-0.0825,-0.0828,-0.0853,-0.0844,-0.0843,-0.0843,-0.0842,-0.0795,-0.0849,-0.0849,-0.0849,-0.0849,0,-0.0457,-0.0462,-0.052,-0.0527,-0.0535,-0.0577,-0.0583,-0.0609,-0.0638,-0.0651,-0.0689,-0.07,-0.0747,-0.0764,-0.0792,-0.0804,-0.081,-0.0825,-0.0833,-0.0823,-0.0821,-0.0831,-0.0834,-0.0848,-0.0848,-0.0848,-0.0848,0,-0.0399,-0.0438,-0.0454,-0.0502,-0.0514,-0.0517,-0.0558,-0.0567,-0.0596,-0.0612,-0.0618,-0.0662,-0.0685,-0.0723,-0.0755,-0.0774,-0.0781,-0.0793,-0.077,-0.0775,-0.0765,-0.0766,-0.0724,-0.0721,-0.0775,-0.0774,-0.0774,0,-0.0373,-0.0379,-0.0428,-0.044,-0.046,-0.0479,-0.0495,-0.0537,-0.0552,-0.0591,-0.0595,-0.062,-0.0643,-0.0676,-0.0711,-0.0737,-0.075,-0.0734,-0.0754,-0.0745,-0.0752,-0.0752,-0.0753,-0.0729,-0.0728,-0.0728,-0.0727,0,-0.0323,-0.0343,-0.0365,-0.0394,-0.0412,-0.0437,-0.0463,-0.0471,-0.0519,-0.0534,-0.0558,-0.0576,-0.061,-0.0635,-0.0666,-0.0688,-0.0716,-0.0721,-0.072,-0.071,-0.0697,-0.0706,-0.0759,-0.0721,-0.0722,-0.0722,-0.0723,-0.0723,-0.0282,-0.0289,-0.0326,-0.0349,-0.0374,-0.0399,-0.041,-0.0441,-0.0462,-0.0494,-0.0518,-0.054,-0.0574,-0.0619,-0.0639,-0.0658,-0.067,-0.0669,-0.0669,-0.0668,-0.0665,-0.0694,-0.0663,-0.0663,-0.0663,-0.0664,-0.0664,0,-0.0235,-0.0261,-0.0282,-0.032,-0.0338,-0.0364,-0.0395,-0.0409,-0.0429,-0.0459,-0.0481,-0.0509,-0.0534,-0.0572,-0.06,-0.0608,-0.0621,-0.0614,-0.0614,-0.0619,-0.0651,-0.065,-0.0602,-0.0602,-0.0602,-0.0602,-0.0602,-0.0602,-0.0213,-0.0228,-0.0252,-0.028,-0.0306,-0.033,-0.0345,-0.0368,-0.0393,-0.0423,-0.0445,-0.0469,-0.0503,-0.0534,-0.0558,-0.0569,-0.0578,-0.0566,-0.0581,-0.0611,-0.0616,-0.0622,-0.062,-0.0568,-0.0568,-0.0547,-0.0547,-0.0547]},{"header":{"parameterUnit":"m.s-1","parameterCategory":1,"la1":30.2991,"la2":30.254,"lo1":-89.0895,"lo2":-89.0444,"dy":0.0017,"dx":0.0017,"nx":28,"ny":28,"refTime":"2024-05-01T03:00:00:Z","depth":0,"parameterNumber":3,"parameterNumberName":"V-component_of_WINDS"},"data":[0,0,0,0,0,0,0,0,0,0,0,0,0,0,0,0,0,0,0,0,0,0,0,0,0,0,0,0,0,0,0,0,0,0,0,0,0,0,0,0,0,0,0,0,0,0,0,0,0,0,0,0,0,0,0,0,0,0,3.2417,3.2417,0,3.2378,3.2378,3.2377,3.2351,3.2351,3.235,3.235,3.2306,3.2305,3.2304,0,0,0,0,0,0,0,0,0,0,0,0,0,3.2461,3.246,3.2417,3.2417,3.2416,3.2378,3.2378,3.2377,3.2351,3.2351,3.235,3.235,3.2307,3.2305,3.2304,0,0,0,0,0,0,0,0,0,0,0,0,0,3.2434,3.246,3.2417,3.2399,3.2397,3.2378,3.2378,3.2377,3.2351,3.2351,3.235,3.235,3.2307,3.2306,3.2304,3.23,0,0,3.2299,3.2299,0,0,0,0,0,0,0,0,3.2435,3.2432,3.2402,3.24,3.2398,3.2369,3.2377,3.2351,3.2351,3.2368,3.235,3.235,3.2327,3.2324,3.2317,3.2298,3.2296,3.2299,3.2298,3.2298,3.2297,0,0,0,0,0,0,0,3.2437,3.2434,3.2402,3.2401,3.2399,3.2389,3.2385,3.2372,3.2349,3.2367,3.2365,3.2361,3.2326,3.2319,3.2316,3.2296,3.2299,3.2298,3.2297,3.2296,3.2264,3.2264,0,0,0,0,0,0,3.2443,3.2436,3.2403,3.2401,3.2416,3.2389,3.2384,3.2378,3.235,3.2345,3.2361,3.2359,3.2321,3.2318,3.2314,3.2304,3.2298,3.2296,3.2295,3.2264,3.2264,3.2264,0,0,0,0,0,0,3.2444,3.244,3.2404,3.2417,3.2412,3.2389,3.2382,3.2378,3.2371,3.2345,3.234,3.2358,3.2321,3.2316,3.2303,3.2302,3.2296,3.2294,3.2264,3.2264,3.2264,3.2285,0,0,0,0,0,0,3.2445,3.2441,3.2442,3.2418,3.2412,3.2396,3.2382,3.2377,3.2369,3.2366,3.2341,3.2337,3.232,3.2305,3.2301,3.23,3.2293,3.2264,3.2264,3.2264,3.2284,3.2286,3.2287,0,0,0,0,0,3.2447,3.245,3.2442,3.2438,3.2412,3.2396,3.2393,3.2375,3.2369,3.2367,3.235,3.2338,3.2303,3.2304,3.2299,3.2297,3.2264,3.2264,3.2264,3.2284,3.2286,3.2287,0,0,0,0,0,0,3.2474,3.2446,3.2437,3.2433,3.2417,3.2392,3.239,3.2378,3.2363,3.2362,3.2338,3.2333,3.232,3.2307,3.2309,3.2288,3.2281,3.2281,3.2298,3.2299,3.2301,3.2304,3.2292,0,0,0,0,0,3.2479,3.2471,3.2446,3.2444,3.2437,3.2415,3.2407,3.2394,3.2377,3.237,3.2352,3.2333,3.2317,3.2308,3.2292,3.2282,3.2273,3.2278,3.2279,3.2281,3.228,3.2268,3.2268,3.2265,3.2265,3.2265,0,0,3.249,3.2474,3.247,3.2449,3.2436,3.2424,3.2409,3.24,3.2389,3.2368,3.2353,3.2339,3.2316,3.2303,3.2296,3.2292,3.2278,3.2281,3.2282,3.228,3.2268,3.2268,3.2269,3.2265,3.2265,3.2265,0,0,3.2504,3.2493,3.2488,3.2473,3.2453,3.2437,3.2435,3.2411,3.2401,3.2386,3.2367,3.2354,3.2329,3.2312,3.23,3.2301,3.2287,3.2296,3.2304,3.2292,3.2293,3.2293,3.2289,3.2289,3.2296,3.2296,3.2296,0,3.252,3.2505,3.2486,3.2476,3.2465,3.2444,3.2436,3.2422,3.2397,3.2388,3.2384,3.2348,3.2332,3.2312,3.2311,3.2304,3.2298,3.2299,3.2294,3.2294,3.2294,3.229,3.229,3.2297,3.2297,3.2297,3.2297,0,3.2523,3.2512,3.251,3.2485,3.2474,3.2465,3.2442,3.2432,3.2418,3.2402,3.2383,3.2362,3.234,3.2334,3.2322,3.231,3.2308,3.2299,3.2291,3.2296,3.2292,3.229,3.2298,3.2298,3.2298,3.2297,0,0,3.2556,3.2518,3.2517,3.2503,3.2477,3.2466,3.2453,3.2432,3.2422,3.2404,3.239,3.2366,3.2356,3.2343,3.2327,3.2318,3.2314,3.2309,3.2308,3.2308,3.2295,3.2301,3.23,3.2305,3.2305,3.2305,3.2296,0,3.2563,3.2542,3.2522,3.2507,3.2493,3.247,3.2459,3.2439,3.2422,3.2405,3.2386,3.2368,3.2359,3.2349,3.2339,3.2317,3.2311,3.2318,3.2289,3.2288,3.2294,3.2298,3.2305,3.2299,3.2295,3.2294,3.2294,0,3.257,3.2552,3.2536,3.2505,3.2499,3.2489,3.2464,3.2451,3.2425,3.2413,3.2395,3.2378,3.2359,3.2353,3.2324,3.2329,3.2315,3.2302,3.2301,3.2297,3.2291,3.2292,3.2297,3.2295,3.2292,3.2293,3.2293,0,3.2591,3.2563,3.2548,3.2537,3.2503,3.2495,3.248,3.2455,3.2441,3.2419,3.2409,3.2384,3.237,3.235,3.2325,3.2323,3.2297,3.229,3.2283,3.2284,3.2279,3.2279,3.2279,3.2273,3.2273,3.2273,3.2273,0,3.2601,3.2591,3.2556,3.2547,3.2533,3.2508,3.2494,3.2476,3.2453,3.2437,3.2415,3.24,3.2369,3.2348,3.2328,3.2305,3.2299,3.2286,3.2281,3.2287,3.2289,3.2277,3.2276,3.2273,3.2273,3.2273,3.2273,0,3.2622,3.26,3.2581,3.2548,3.254,3.253,3.2501,3.2489,3.2469,3.2448,3.2442,3.241,3.2385,3.2357,3.2323,3.2309,3.2285,3.2279,3.2294,3.2291,3.2285,3.2285,3.2277,3.2272,3.2271,3.2271,3.2271,0,3.263,3.2621,3.2587,3.2575,3.256,3.2542,3.2527,3.25,3.2485,3.2453,3.2443,3.2416,3.2393,3.2352,3.2324,3.2296,3.2287,3.2286,3.2283,3.2288,3.2284,3.2284,3.2281,3.2287,3.2287,3.2287,3.2288,0,3.2643,3.2631,3.2612,3.2587,3.257,3.255,3.2528,3.2518,3.2486,3.247,3.2444,3.2426,3.2389,3.236,3.2328,3.2308,3.2291,3.2288,3.2285,3.2291,3.2299,3.2291,3.2295,3.2289,3.2289,3.2289,3.2289,3.2289,3.2656,3.2645,3.2618,3.2596,3.2576,3.2555,3.2541,3.2518,3.2497,3.2465,3.245,3.2422,3.2392,3.2346,3.2327,3.2302,3.2297,3.2293,3.2292,3.2291,3.2291,3.2304,3.2296,3.2296,3.2296,3.2296,3.2296,0,3.2666,3.2646,3.2626,3.2596,3.2577,3.2563,3.2536,3.2521,3.2497,3.2471,3.2448,3.2415,3.2386,3.2354,3.2322,3.2308,3.2299,3.23,3.2301,3.2295,3.2299,3.2304,3.2308,3.2308,3.2308,3.2308,3.2308,3.2308,3.2669,3.2649,3.2632,3.26,3.258,3.2554,3.254,3.2518,3.2497,3.2461,3.2437,3.2417,3.2387,3.2351,3.2323,3.2313,3.2301,3.2305,3.2293,3.2297,3.2296,3.2295,3.2299,3.2303,3.2303,3.2291,3.2291,3.2291]}]]